Find OneWeb SL0300

NORAD ID: 49089 Int'l Des: 2021-075 Owner: ONEWEBN Country: UK Constellation: oneweb operational
LEOCIRCULARPOLARONEWEB_TYPE

リアルタイム位置

3D地球を読み込み中...

OneWeb SL0300について

説明を読み込み中...

次回通過

Passes for default location (London). Set your location on the main map for personalized predictions.

高度履歴

Loading altitude history...

軌道要素

1 49089U 21075Q 26110.39278505 .00000281 00000-0 74627-3 0 9994
2 49089 87.9002 2.1376 0001929 90.3980 269.7369 13.12443036227625
Epoch: Apr 20, 2026 • Age: 10 hours

現在のステータス

高度 1215.9 km
速度 7.25 km/s
衛星直下点 22.71°N, 41.68°E
打ち上げ日 Aug 21, 2021
運用期間 4.6 years
タイプ internet

技術仕様

分類 Payload
質量 148.00 kg
乾燥質量 140.00 kg
総質量 148.00 kg
長さ 1.30 m
直径 1.00 m
スパン 5.00 m
形状 Trapezoid+2 pan
製造者 ONEWUS
バスタイプ ARROW
フェーズステータス In Orbit
所有者/国 ONEWEBN/UK

Most Searched